Regional Weather Roundup
Issued by NWS Spokane, WA

Home | Current Version | Previous Version | Text Only | Print | Product List | Glossary On
Versions: 1 2 3 4 5 6 7 8 9 10 11 12 13 14 15 16 17 18 19 20 21 22 23 24 25 26 27 28 29 30 31 32 33 34 35 36 37 38 39 40 41 42 43 44 45 46 47 48 49 50
000
NZUS01 KOTX 010610
RWROTX
EASTERN WASHINGTON/NORTHERN IDAHO ROUNDUP
NATIONAL WEATHER SERVICE, SPOKANE WA
1100 PM PDT THU JUL 31 2014

Note: "fair" indicated few or no clouds below 12,000 feet with no
significant weather and/or obstructions to visibility.

...NORTHEAST WASHINGTON AND NORTHERN IDAHO PANHANDLE...

CITY           SKY/WX    TMP DP  RH WIND       PRES   REMARKS
SPOKANE INTL   MOCLDY    81  31  16 SW9       30.01S
SPOKANE DOWNTO CLEAR     73  40  30 CALM      30.00R
COEUR D ALENE  PTCLDY    72  48  43 S7        30.01R
DEER PARK      CLEAR     66  38  35 CALM      30.00R
SANDPOINT      PTCLDY    63  50  63 W5        30.00S

...SOUTHEAST WASHINGTON AND SOUTHERN IDAHO PANHANDLE...

CITY           SKY/WX    TMP DP  RH WIND       PRES   REMARKS
WALLA WALLA    MOCLDY    80  46  30 E7        29.94S
PULLMAN/MOSCOW PTCLDY    65  45  48 CALM      30.05F
LEWISTON       PTCLDY    85  44  23 S7        29.96S
LOWELL           N/A     68  56  65 N5        30.01R

...COLUMBIA BASIN...

CITY           SKY/WX    TMP DP  RH WIND       PRES   REMARKS
EPHRATA        PTCLDY    79  47  32 SE9       29.92S
MOSES LAKE     MOCLDY    75  51  43 N5        29.93R
TRI CITIES     CLOUDY    75  60  59 CALM      29.88S
HERMISTON      MOCLDY    78  51  38 SE9       29.89R
PENDLETON      MOCLDY    74  47  38 E7        29.95R

...EAST SLOPES CASCADES...

CITY           SKY/WX    TMP DP  RH WIND       PRES   REMARKS
THE DALLES     CLOUDY    84  59  42 NW18      29.87R
YAKIMA         PTCLDY    77  53  43 W7        29.94R
ELLENSBURG     PTCLDY    76  55  48 NW10      30.00R
WENATCHEE      PTCLDY    86  47  25 N10       29.93R
OMAK           PTCLDY    76  31  19 NW6       29.94R

...SOUTHERN BRITISH COLUMBIA...

CITY           SKY/WX    TMP DP  RH WIND       PRES   REMARKS
PENTICTON      CLEAR     79  46  31 N8        29.98R
CRANBROOK      CLEAR     75  36  23 W5        30.06R

...WESTERN MONTANA...

CITY           SKY/WX    TMP DP  RH WIND       PRES   REMARKS
MISSOULA       PTCLDY    72  41  32 NW6       30.09S

...NEIGHBORING CITIES...

CITY           SKY/WX    TMP DP  RH WIND       PRES   REMARKS
SEATTLE        CLEAR     73  47  39 NE12      30.04S
CALGARY        MOCLDY    68  61  77 N12       30.16R



USA.gov is the U.S. government's official web portal to all federal, state and local government web resources and services.